Tracking 35331 objects as of 16-Sep-2026
HD Live streaming from Space Station
objects crossing your sky now

COSMOS 1813 DEB


COSMOS 1813 DEB is no longer on orbit


NORAD ID: 18273
Int'l Code: 1987-004GR
Launch date: January 15, 1987
Source: Commonwealth of Independent States (former USSR) (CIS)
Launch site: PLESETSK MISSILE AND SPACE COMPLEX (PKMTR)
Decay date: 1990-07-16

Note: This is SATELLITE DEBRIS
Your satellite tracking list
Your tracking list is empty




NASA's NSSDC Master Catalog

Two Line Element Set (TLE):
1 18273U 87004 GR 90195.04954179  .02363560 +32638-5 +12938-2 0  9990
2 18273 072.7584 070.2560 0008958 004.7222 355.8348 16.19374248166490
Source of the keplerian elements: AFSPC